ACA46 CYEG-CYMM

Flight info

Callsign ACA46
Flight time 0h 40m
Altitude 28000
Route EBLAR KAVDA LEXON LEXON5
Aircraft A321/M-SDE3FGHIRWY/LB1

Departure

Time 2026-04-29 00:11
Airport Edmonton International Airport (CYEG)

Arrival

Time 2026-04-29 00:51
Airport Fort McMurray International Airport (CYMM)
Time Latitude Longitude Altitude Speed Heading
2026-04-28 23:50 53.30635 -113.58515 2355 ft 0 kts 44°
2026-04-28 23:59 53.30625 -113.58532 2355 ft 4 kts 50°
2026-04-29 00:00 53.30608 -113.58566 2355 ft 4 kts 49°
2026-04-29 00:00 53.30589 -113.58597 2355 ft 4 kts 31°
2026-04-29 00:00 53.30566 -113.58611 2355 ft 4 kts 351°
2026-04-29 00:00 53.30552 -113.58603 2355 ft 0 kts 317°
2026-04-29 00:04 53.30579 -113.58648 2355 ft 13 kts 310°
2026-04-29 00:04 53.30571 -113.58791 2356 ft 13 kts 229°
2026-04-29 00:04 53.30527 -113.58902 2357 ft 13 kts 273°
2026-04-29 00:05 53.30592 -113.59032 2356 ft 17 kts 315°
2026-04-29 00:05 53.30702 -113.59215 2355 ft 24 kts 315°
2026-04-29 00:05 53.30788 -113.59349 2351 ft 16 kts 316°
2026-04-29 00:05 53.30834 -113.59425 2349 ft 0 kts 315°
2026-04-29 00:07 53.30838 -113.59431 2349 ft 4 kts 315°
2026-04-29 00:07 53.30895 -113.59525 2348 ft 14 kts 319°
2026-04-29 00:07 53.30967 -113.59533 2349 ft 0 kts 31°
2026-04-29 00:10 53.31019 -113.59476 2348 ft 35 kts 34°
2026-04-29 00:10 53.31419 -113.59013 2351 ft 101 kts 35°
2026-04-29 00:10 53.32142 -113.58166 2357 ft 150 kts 35°
2026-04-29 00:10 53.33033 -113.57123 2782 ft 155 kts 34°
2026-04-29 00:11 53.33927 -113.56104 3439 ft 156 kts 33°
2026-04-29 00:11 53.34820 -113.55064 4076 ft 157 kts 33°
2026-04-29 00:11 53.36797 -113.52739 4599 ft 195 kts 33°
2026-04-29 00:12 53.37960 -113.51365 4755 ft 213 kts 34°
2026-04-29 00:12 53.39193 -113.49879 5041 ft 222 kts 34°
2026-04-29 00:12 53.40437 -113.48340 5460 ft 222 kts 35°
2026-04-29 00:12 53.41681 -113.46782 5855 ft 224 kts 35°
2026-04-29 00:13 53.42935 -113.45208 6272 ft 226 kts 35°
2026-04-29 00:13 53.44223 -113.43592 6548 ft 243 kts 35°
2026-04-29 00:13 53.45648 -113.41808 6899 ft 263 kts 35°
2026-04-29 00:13 53.47132 -113.39948 7705 ft 269 kts 34°
2026-04-29 00:14 53.48616 -113.38084 8599 ft 271 kts 34°
2026-04-29 00:14 53.50133 -113.36178 9499 ft 273 kts 33°
2026-04-29 00:14 53.51664 -113.34252 10344 ft 279 kts 34°
2026-04-29 00:14 53.53281 -113.32215 10635 ft 302 kts 34°
2026-04-29 00:15 53.55029 -113.30014 10856 ft 326 kts 34°
2026-04-29 00:15 53.56910 -113.27647 11006 ft 349 kts 34°
2026-04-29 00:15 53.58903 -113.25128 11291 ft 366 kts 34°
2026-04-29 00:15 53.60958 -113.22526 11929 ft 372 kts 34°
2026-04-29 00:16 53.63041 -113.19886 12637 ft 376 kts 34°
2026-04-29 00:16 53.65133 -113.17232 13362 ft 379 kts 34°
2026-04-29 00:16 53.67218 -113.14579 14053 ft 382 kts 34°
2026-04-29 00:16 53.69348 -113.11862 14652 ft 386 kts 34°
2026-04-29 00:17 53.71515 -113.09150 15222 ft 389 kts 31°
2026-04-29 00:17 53.73881 -113.06923 15769 ft 391 kts 22°
2026-04-29 00:17 53.76423 -113.05255 16322 ft 394 kts 18°
2026-04-29 00:17 53.79003 -113.03628 16902 ft 398 kts 18°
2026-04-29 00:18 53.81607 -113.01980 17413 ft 403 kts 19°
2026-04-29 00:18 53.84245 -113.00301 17945 ft 407 kts 19°
2026-04-29 00:18 53.86908 -112.98598 18476 ft 411 kts 19°
2026-04-29 00:18 53.89560 -112.96897 18947 ft 415 kts 19°
2026-04-29 00:19 53.92269 -112.95160 19446 ft 418 kts 19°
2026-04-29 00:19 53.94999 -112.93410 19926 ft 421 kts 19°
2026-04-29 00:19 53.97748 -112.91649 20416 ft 424 kts 19°
2026-04-29 00:19 54.00517 -112.89873 20893 ft 427 kts 19°
2026-04-29 00:20 54.03304 -112.88078 21373 ft 430 kts 19°
2026-04-29 00:20 54.06110 -112.86269 21849 ft 433 kts 19°
2026-04-29 00:20 54.08929 -112.84451 22321 ft 436 kts 19°
2026-04-29 00:20 54.11773 -112.82615 22793 ft 439 kts 19°
2026-04-29 00:21 54.14592 -112.80787 23314 ft 440 kts 19°
2026-04-29 00:21 54.17459 -112.78921 23765 ft 443 kts 19°
2026-04-29 00:21 54.20359 -112.77035 24040 ft 448 kts 19°
2026-04-29 00:21 54.23284 -112.75131 24394 ft 451 kts 19°
2026-04-29 00:22 54.26223 -112.73219 24789 ft 453 kts 19°
2026-04-29 00:22 54.29173 -112.71294 25189 ft 455 kts 19°
2026-04-29 00:22 54.32134 -112.69358 25581 ft 456 kts 19°
2026-04-29 00:22 54.35106 -112.67414 25950 ft 458 kts 19°
2026-04-29 00:23 54.38080 -112.65469 26357 ft 458 kts 19°
2026-04-29 00:23 54.41054 -112.63520 26869 ft 456 kts 19°
2026-04-29 00:23 54.43969 -112.61600 27370 ft 454 kts 19°
2026-04-29 00:23 54.46909 -112.59657 27876 ft 452 kts 19°
2026-04-29 00:24 54.49832 -112.57728 28373 ft 450 kts 19°
2026-04-29 00:24 54.52752 -112.55806 28873 ft 449 kts 19°
2026-04-29 00:24 54.55664 -112.53890 29147 ft 447 kts 19°
2026-04-29 00:25 54.61428 -112.50063 29187 ft 442 kts 19°
2026-04-29 00:25 54.67164 -112.46244 29188 ft 442 kts 19°
2026-04-29 00:26 54.72858 -112.42438 29187 ft 442 kts 19°
2026-04-29 00:26 54.78590 -112.38603 29188 ft 443 kts 19°
2026-04-29 00:27 54.84339 -112.34750 29185 ft 443 kts 19°
2026-04-29 00:27 54.90042 -112.30675 29175 ft 444 kts 22°
2026-04-29 00:28 54.95621 -112.26075 29191 ft 443 kts 23°
2026-04-29 00:28 55.01202 -112.21706 29183 ft 443 kts 23°
2026-04-29 00:29 55.06760 -112.17102 29181 ft 442 kts 24°
2026-04-29 00:29 55.12308 -112.12432 29170 ft 443 kts 24°
2026-04-29 00:30 55.17870 -112.07800 29155 ft 443 kts 23°
2026-04-29 00:30 55.23445 -112.03196 29156 ft 443 kts 23°
2026-04-29 00:31 55.29013 -111.98571 29150 ft 443 kts 23°
2026-04-29 00:31 55.34568 -111.93926 29154 ft 443 kts 23°
2026-04-29 00:32 55.40090 -111.89287 29152 ft 443 kts 23°
2026-04-29 00:32 55.45652 -111.84622 29142 ft 443 kts 23°
2026-04-29 00:33 55.51214 -111.79946 29149 ft 443 kts 24°
2026-04-29 00:33 55.56771 -111.75239 29151 ft 443 kts 24°
2026-04-29 00:33 55.59544 -111.72887 28916 ft 443 kts 24°
2026-04-29 00:34 55.62291 -111.70553 27784 ft 447 kts 24°
2026-04-29 00:34 55.65152 -111.68119 26593 ft 453 kts 24°
2026-04-29 00:34 55.67968 -111.65722 25415 ft 458 kts 24°
2026-04-29 00:34 55.70854 -111.63264 24286 ft 462 kts 24°
2026-04-29 00:35 55.73759 -111.60785 23180 ft 464 kts 24°
2026-04-29 00:35 55.76637 -111.58316 22498 ft 454 kts 24°
2026-04-29 00:35 55.79464 -111.55885 21590 ft 450 kts 24°
2026-04-29 00:35 55.82254 -111.53484 20804 ft 443 kts 24°
2026-04-29 00:36 55.85010 -111.51111 20032 ft 437 kts 24°
2026-04-29 00:36 55.87728 -111.48770 19184 ft 434 kts 24°
2026-04-29 00:36 55.90432 -111.46443 18452 ft 429 kts 24°
2026-04-29 00:36 55.93102 -111.44145 17674 ft 423 kts 24°
2026-04-29 00:37 55.95691 -111.41906 16997 ft 415 kts 24°
2026-04-29 00:37 55.98269 -111.39667 16335 ft 409 kts 24°
2026-04-29 00:37 56.00804 -111.37463 15691 ft 402 kts 24°
2026-04-29 00:37 56.03297 -111.35299 15084 ft 395 kts 24°
2026-04-29 00:38 56.05748 -111.33169 14481 ft 388 kts 24°
2026-04-29 00:38 56.08158 -111.31070 13898 ft 382 kts 24°
2026-04-29 00:38 56.10524 -111.29002 13304 ft 375 kts 24°
2026-04-29 00:38 56.12837 -111.26977 12762 ft 367 kts 24°
2026-04-29 00:39 56.15112 -111.24984 12223 ft 361 kts 24°
2026-04-29 00:39 56.17359 -111.23013 11688 ft 358 kts 24°
2026-04-29 00:39 56.19534 -111.21103 11318 ft 339 kts 24°
2026-04-29 00:39 56.21556 -111.19319 11028 ft 309 kts 24°
2026-04-29 00:40 56.23400 -111.17690 10691 ft 287 kts 24°
2026-04-29 00:40 56.25178 -111.16124 10424 ft 281 kts 24°
2026-04-29 00:40 56.26918 -111.14595 10170 ft 276 kts 24°
2026-04-29 00:40 56.28629 -111.13090 9959 ft 273 kts 24°
2026-04-29 00:41 56.30344 -111.11586 9816 ft 274 kts 24°
2026-04-29 00:41 56.32040 -111.10093 9683 ft 268 kts 24°
2026-04-29 00:41 56.33697 -111.08627 9543 ft 264 kts 24°
2026-04-29 00:41 56.35343 -111.07167 9404 ft 263 kts 24°
2026-04-29 00:42 56.36963 -111.05729 9267 ft 263 kts 24°
2026-04-29 00:42 56.38603 -111.04271 9129 ft 263 kts 24°
2026-04-29 00:42 56.40242 -111.02816 8991 ft 262 kts 24°
2026-04-29 00:42 56.41877 -111.01365 8846 ft 261 kts 23°
2026-04-29 00:43 56.43503 -110.99921 8721 ft 260 kts 23°
2026-04-29 00:43 56.45132 -110.98470 8349 ft 263 kts 24°
2026-04-29 00:43 56.46772 -110.97005 7914 ft 262 kts 24°
2026-04-29 00:43 56.48401 -110.95549 7433 ft 264 kts 23°
2026-04-29 00:44 56.50039 -110.94086 7162 ft 258 kts 23°
2026-04-29 00:44 56.51648 -110.92647 6820 ft 256 kts 23°
2026-04-29 00:44 56.53237 -110.91225 6656 ft 254 kts 23°
2026-04-29 00:44 56.54802 -110.89825 6534 ft 254 kts 23°
2026-04-29 00:45 56.56397 -110.88458 6412 ft 252 kts 17°
2026-04-29 00:45 56.58062 -110.87856 6178 ft 241 kts 359°
2026-04-29 00:45 56.59733 -110.87843 5831 ft 239 kts 358°
2026-04-29 00:45 56.61389 -110.87834 5511 ft 236 kts 358°
2026-04-29 00:46 56.63005 -110.87820 5191 ft 230 kts 358°
2026-04-29 00:46 56.64578 -110.87804 4892 ft 222 kts 359°
2026-04-29 00:46 56.66050 -110.88218 4633 ft 209 kts 331°
2026-04-29 00:46 56.66951 -110.90143 4363 ft 203 kts 287°
2026-04-29 00:47 56.66838 -110.92598 4139 ft 199 kts 250°
2026-04-29 00:47 56.66250 -110.94817 3907 ft 191 kts 246°
2026-04-29 00:47 56.65772 -110.97015 3654 ft 183 kts 255°
2026-04-29 00:47 56.65521 -110.99241 3443 ft 178 kts 265°
2026-04-29 00:48 56.65432 -111.01470 3262 ft 176 kts 267°
2026-04-29 00:48 56.65351 -111.03643 3091 ft 169 kts 270°
2026-04-29 00:48 56.65322 -111.05763 2908 ft 166 kts 270°
2026-04-29 00:48 56.65314 -111.07847 2671 ft 165 kts 271°
2026-04-29 00:49 56.65312 -111.09914 2441 ft 159 kts 272°
2026-04-29 00:49 56.65312 -111.11810 2221 ft 147 kts 273°
2026-04-29 00:49 56.65314 -111.13641 2001 ft 143 kts 271°
2026-04-29 00:49 56.65316 -111.15450 1807 ft 143 kts 269°
2026-04-29 00:50 56.65322 -111.17259 1623 ft 143 kts 269°
2026-04-29 00:50 56.65329 -111.19070 1437 ft 143 kts 268°
2026-04-29 00:50 56.65323 -111.20871 1253 ft 142 kts 268°
2026-04-29 00:50 56.65322 -111.22487 1215 ft 96 kts 269°
2026-04-29 00:51 56.65323 -111.23216 1215 ft 38 kts 271°
2026-04-29 00:51 56.65284 -111.23578 1215 ft 22 kts 208°
2026-04-29 00:51 56.65167 -111.23506 1215 ft 19 kts 101°
2026-04-29 00:51 56.65164 -111.23277 1215 ft 18 kts 90°
2026-04-29 00:52 56.65165 -111.23053 1215 ft 18 kts 89°
2026-04-29 00:52 56.65166 -111.22832 1215 ft 17 kts 89°
2026-04-29 00:52 56.65085 -111.22739 1215 ft 15 kts 179°
2026-04-29 00:52 56.64981 -111.22749 1215 ft 13 kts 208°
2026-04-29 00:53 56.64973 -111.22835 1215 ft 5 kts 262°
2026-04-29 00:53 56.64972 -111.22857 1215 ft 0 kts 264°